Regional Weather Roundup
Issued by NWS

Home | Current Version | Previous Version | Graphics & Text | Print | Product List | Glossary On
Versions: 1 2 3 4 5 6 7 8 9 10 11 12 13 14 15 16 17 18 19 20 21 22 23 24 25 26 27 28 29 30 31 32 33 34 35 36 37 38 39 40 41 42 43 44 45 46 47 48 49 50
000
ASUS44 KMEG 261610
RWRTN
TENNESSEE HOURLY STATE WEATHER ROUNDUP
NATIONAL WEATHER SERVICE MEMPHIS TN
1100 AM CDT TUE JUL 26 2016

TNZ002-004-019-021-049-052-054-088>092-261700-
WEST TENNESSEE

CITY           SKY/WX    TMP DP  RH WIND       PRES   REMARKS
MEMPHIS INTL   MOSUNNY   93  74  53 CALM      30.01R HX 103
NWS MEMPHIS      N/A     92 N/A N/A MISG        N/A
JACKSON        SUNNY     91  74  57 CALM      30.02S HX 100
DYERSBURG      SUNNY    N/A N/A N/A MISG        N/A
UNION CITY     SUNNY     90  75  62 VRB3      30.01S HX 100
PARIS          SUNNY     88  73  62 SW6       30.04S HX  96
LEXINGTON      SUNNY     90  73  58 SW5       30.03S HX  98
$$

TNZ008-025-027-028-033-062-065-066-261700-
NORTH MIDDLE TENNESSEE

CITY           SKY/WX    TMP DP  RH WIND       PRES   REMARKS
NASHVILLE      MOSUNNY   91  73  55 SW3       30.04F HX  99
CLARKSVILLE    SUNNY     88  75  65 S5        30.03S HX  97
SMYRNA         MOSUNNY   93  74  54 VRB3      30.05S HX 102
COOKEVILLE     SUNNY     90  75  62 VRB3      30.07S HX 100
CROSSVILLE     CLOUDY    82  72  71 W6        30.13S
$$

TNZ061-075-076-078-094-096-097-261700-
SOUTH MIDDLE TENNESSEE

CITY           SKY/WX    TMP DP  RH WIND       PRES   REMARKS
FAYETTEVILLE   SUNNY     88  73  62 VRB6      30.06F HX  96
TULLAHOMA      SUNNY     84  72  65 VRB5      30.09S
WINCHESTER     SUNNY     88  72  58 S3        30.07F HX  94
MCMINNVILLE    SUNNY     86  75  70 VRB6      30.08F HX  95
COLUMBIA       SUNNY     91  73  55 CALM      30.03F HX 100
SHELBYVILLE    SUNNY     90  75  62 S5        30.07S HX 100
$$

TNZ017-018-042-046-047-261700-
NORTHEAST TENNESSEE

CITY           SKY/WX    TMP DP  RH WIND       PRES   REMARKS
TRI CITIES     PTSUNNY   88  71  57 SW6       30.11S HX  94
ELIZABETHTON   MOSUNNY   86  72  62 NW8       30.10F HX  92
$$

TNZ012-013-036-069-073-074-261700-
CENTRAL EAST TENNESSEE

CITY           SKY/WX    TMP DP  RH WIND       PRES   REMARKS
KNOXVILLE      CLOUDY    86  72  62 SW8       30.07S HX  92
OAK RIDGE      CLOUDY    84  73  69 W5        30.09S HX  90
GATLINBURG       N/A     90  72  55 VRB5      30.06F HX  96
MORRISTOWN     SUNNY     88  72  58 CALM      30.09S HX  94
$$

TNZ083-085-099-261700-
SOUTHEAST TENNESSEE

CITY           SKY/WX    TMP DP  RH WIND       PRES   REMARKS
CHATTANOOGA    CLOUDY    86  71  60 CALM      30.07S HX  91
$$

SKY/WX REPORTED AS FAIR MEANS FEW OR NO CLOUDS BELOW
12 THOUSAND FEET.





USA.gov is the U.S. government's official web portal to all federal, state and local government web resources and services.